Location: Newark
(49.3000°N, 9.4667°E)
Time: 12:10:25
(UTC+00:00)

Tiros 1 - Visible Passes

Search period start: 15 October 2019 00:00
Search period end: 25 October 2019 00:00
Orbit: 630 x 664 km, 48.4° (Epoch: 14 October)

Date Brightness Start Highest point End Pass type
(mag) Time Alt. Az. Time Alt. Az. Time Alt. Az.
15 Oct 8.5 03:01:20 30° SSE 03:01:26 30° SSE 03:05:39 10° E visible
15 Oct 7.4 04:39:01 13° WSW 04:43:15 70° SSE 04:48:03 10° E visible
16 Oct 7.7 03:26:27 43° S 03:27:15 48° SSE 03:31:55 10° E visible
16 Oct 7.3 05:04:28 10° W 05:09:18 81° S 05:14:09 10° E visible
17 Oct 9.5 02:13:51 19° ESE 02:13:51 19° ESE 02:15:35 10° E visible
17 Oct 7.3 03:51:32 39° SW 03:53:13 68° SSE 03:58:01 10° E visible
18 Oct 8.6 02:38:53 33° ESE 02:38:53 33° ESE 02:41:52 10° E visible
18 Oct 7.2 04:16:34 26° W 04:19:16 80° S 04:24:07 10° E visible
19 Oct 7.6 03:03:54 57° ESE 03:03:54 57° ESE 03:07:59 10° E visible
19 Oct 7.2 04:41:34 16° W 04:45:21 80° S 04:50:12 10° E visible
20 Oct 10.0 01:51:14 13° E 01:51:14 13° E 01:51:49 10° E visible
20 Oct 7.0 03:28:54 74° SW 03:29:14 80° S 03:34:05 10° E visible
20 Oct 7.4 05:06:36 10° W 05:11:24 68° SSW 05:16:12 10° ESE visible
21 Oct 9.4 02:16:14 22° E 02:16:14 22° E 02:17:57 10° E visible
21 Oct 7.1 03:53:54 46° W 03:55:19 81° S 04:00:10 10° E visible
22 Oct 8.6 02:41:14 35° E 02:41:14 35° E 02:44:02 10° E visible
22 Oct 7.2 04:18:54 28° W 04:21:23 69° SSW 04:26:11 10° ESE visible
23 Oct 7.7 03:06:16 56° ESE 03:06:16 56° ESE 03:10:07 10° E visible
23 Oct 7.6 04:43:57 18° W 04:47:20 50° SSW 04:52:00 10° SE visible
24 Oct 10.1 01:53:40 12° E 01:53:40 12° E 01:53:59 10° E visible
24 Oct 7.1 03:31:21 71° SSW 03:31:21 71° SSW 03:36:09 10° ESE visible
24 Oct 8.2 05:09:01 10° W 05:13:11 32° SSW 05:17:25 10° SSE visible
